Snowfall_Accumulation
0.0 0.0 0.0 0.0 0.0 0.0 0.0 0.1 0.2 0.3 0.0 0.0 0.0 0.0 0.0 0.0 0.0 0.0 0.0 0.0 0.0 0.0 0.0 0.0 0.0 0.0 0.0 0.0 0.0 0.0 0.0 0.0 0.0 0.0 0.0 0.0 0.0 0.0
0.0 0.0 0.0 0.0 0.0 0.0 0.0 0.1 0.1 0.3 0.4 0.0 0.0 0.0 0.0 0.0 0.0 0.0 0.0 0.0 0.0 0.0 0.1 0.1 0.1 0.1 0.1 0.0 0.0 0.0 0.0 0.0 0.0 0.0 0.0 0.0 0.0 0.0
0.0 0.0 0.0 0.1 0.1 0.1 0.1 0.1 0.1 0.2 0.4 0.1 0.1 0.1 0.1 0.0 0.0 0.0 0.0 0.0 0.0 0.1 0.1 0.1 0.2 0.1 0.1 0.1 0.1 0.1 0.0 0.0 0.0 0.0 0.0 0.0 0.0 0.0
0.1 0.0 0.1 0.1 0.1 0.2 0.1 0.2 0.2 0.3 0.9 1.0 0.3 0.2 0.2 0.2 0.1 0.1 0.0 0.0 0.0 0.0 0.1 0.2 0.2 0.2 0.2 0.2 0.2 0.1 0.1 0.0 0.0 0.0 0.0 0.0 0.0 0.0
0.1 0.2 0.2 0.2 0.2 0.2 0.3 0.3 0.4 0.4 0.7 1.1 0.6 0.2 0.2 0.1 0.2 0.1 0.1 0.0 0.0 0.0 0.0 0.1 0.1 0.2 0.3 0.3 0.3 0.2 0.2 0.2 0.1 0.1 0.1 0.0 0.0 0.0
0.4 0.4 0.6 0.6 0.6 0.5 0.5 0.6 0.8 0.9 1.0 1.4 1.6 1.1 0.8 0.4 0.4 0.3 0.2 0.1 0.1 0.1 0.1 0.0 0.1 0.2 0.2 0.2 0.2 0.3 0.3 0.4 0.4 0.4 0.4 0.2 0.1 0.1
0.5 0.5 0.4 0.3 0.3 0.4 0.6 1.0 1.3 1.7 2.5 2.9 2.6 1.8 1.1 0.9 0.8 0.7 0.9 0.4 0.4 0.1 0.1 0.1 0.1 0.1 0.1 0.1 0.1 0.1 0.2 0.4 0.6 0.6 0.5 0.4 0.2 0.2
0.3 0.6 0.4 0.5 0.4 0.4 0.6 1.0 1.9 3.0 3.9 4.2 3.8 2.7 1.3 1.0 0.9 1.2 1.7 2.5 2.0 0.4 0.5 0.4 0.3 0.2 0.2 0.1 0.1 0.3 0.4 0.7 0.8 0.9 0.7 0.6 0.4 0.3
0.9 0.7 0.6 0.5 0.6 0.5 0.5 1.0 1.5 2.0 2.6 3.2 3.1 1.9 1.4 1.2 2.4 3.7 3.7 4.1 3.1 1.1 1.1 1.2 0.4 0.4 0.2 0.2 0.2 0.4 0.4 0.6 0.8 0.9 0.8 0.6 0.6 0.4
0.8 0.6 0.7 0.6 0.5 0.9 1.5 1.9 1.2 0.7 0.7 0.8 1.1 1.2 1.2 1.5 3.1 5.4 5.3 4.2 2.0 0.8 0.8 2.3 0.8 0.6 0.2 0.2 0.2 0.3 0.4 0.6 0.8 1.0 1.0 0.7 0.7 0.6
0.5 0.5 0.7 0.6 0.7 1.9 3.1 2.8 1.4 0.3 0.2 0.5 0.9 1.0 0.9 1.0 1.5 4.1 5.7 6.3 4.6 1.2 1.2 2.0 1.4 1.2 1.0 0.7 0.2 0.4 0.8 0.8 1.1 1.0 1.0 1.1 0.8 0.8
0.6 0.6 0.6 0.7 1.4 2.6 3.1 2.9 2.1 0.8 1.0 0.7 0.5 0.2 0.3 0.4 0.7 3.0 7.3 11.7 9.4 5.4 1.7 3.1 3.6 4.3 5.4 2.1 1.7 1.3 1.1 1.1 1.1 0.9 1.1 1.1 1.2 1.3
1.4 1.0 0.4 1.1 2.1 2.4 2.3 1.7 1.9 2.5 2.0 1.2 0.8 0.8 0.7 0.7 0.8 1.5 3.9 11.2 15.0 9.7 3.0 7.3 8.9 6.2 9.9 7.3 3.1 2.3 2.3 2.6 2.1 1.4 1.2 1.2 1.2 1.6
1.8 1.0 1.0 1.8 2.0 1.6 1.2 1.3 1.6 1.6 1.4 1.8 1.8 1.7 1.8 1.8 2.0 2.2 3.1 5.4 8.4 9.7 6.3 9.6 15.0 11.7 14.1 11.4 6.0 4.0 2.6 3.5 4.3 3.0 1.9 1.1 1.0 1.2
1.3 1.6 1.7 1.5 1.4 1.3 1.0 1.4 1.6 1.9 2.7 3.7 3.3 2.5 2.5 2.9 3.1 4.0 4.2 4.5 5.1 5.5 7.2 7.8 11.4 12.5 15.1 14.7 10.5 8.0 8.3 5.4 5.4 5.0 3.5 2.4 1.6 1.5
1.8 1.5 1.3 1.0 1.1 1.4 1.4 1.8 1.8 2.7 4.5 6.0 5.4 4.1 3.8 4.6 6.1 7.4 8.9 9.4 11.2 9.5 8.2 8.0 8.4 12.1 14.5 11.6 12.5 11.7 11.3 11.7 8.4 6.5 5.0 3.7 2.2 1.7
2.3 1.5 1.6 1.6 1.8 1.9 1.8 2.1 2.4 2.8 4.5 5.7 6.5 7.2 7.2 8.3 9.9 11.7 13.0 13.0 12.9 11.1 9.0 7.1 6.6 7.2 9.2 10.6 11.9 11.1 11.4 11.6 9.1 6.4 6.3 6.4 3.2 2.3
2.2 2.5 2.3 2.5 2.7 2.7 3.0 2.9 3.1 4.1 5.6 7.3 8.6 9.7 11.8 12.6 12.8 12.6 13.2 13.6 12.7 10.0 8.5 7.0 7.0 7.7 7.1 6.4 8.4 11.2 11.8 11.9 8.4 7.1 7.3 8.8 6.8 3.7
2.8 3.0 2.9 3.2 3.4 3.8 4.1 4.9 4.6 4.9 6.7 9.2 11.6 13.4 14.6 14.9 14.6 13.9 12.6 11.6 10.1 7.9 7.0 6.3 7.4 12.1 13.0 8.6 6.1 8.1 13.6 13.9 9.8 8.0 7.6 8.4 8.6 5.8
3.3 4.5 4.7 4.2 4.4 5.1 5.8 6.7 7.5 8.1 9.1 11.6 13.1 14.6 16.1 16.8 15.2 12.8 10.9 10.0 9.1 7.3 5.7 4.8 6.2 11.5 17.8 16.0 12.4 9.7 9.5 14.1 15.4 13.6 8.7 6.1 5.5 3.9
4.8 5.3 5.5 5.3 5.2 6.5 7.4 8.7 10.3 12.0 12.6 14.6 15.3 15.9 16.6 16.6 13.9 10.3 8.7 7.3 7.7 7.8 7.4 5.5 4.7 6.2 10.8 14.2 12.9 9.1 9.9 8.4 10.9 16.8 16.3 14.1 10.9 8.0
4.0 4.7 5.1 5.3 5.9 7.5 8.6 10.2 11.9 12.7 13.9 15.0 16.0 15.8 14.8 13.6 11.8 8.7 7.7 7.8 7.4 7.0 6.7 5.2 4.2 5.3 8.8 13.0 11.8 8.8 9.0 8.8 6.7 5.6 8.2 12.9 20.9 21.4
4.4 5.1 6.0 6.3 7.2 8.5 10.4 11.5 12.3 13.1 14.6 15.9 15.9 14.5 12.6 10.6 8.2 7.8 7.7 7.8 7.8 7.1 6.6 6.3 5.6 5.6 6.8 8.6 10.1 9.1 8.2 7.6 7.2 7.6 9.5 6.3 6.7 8.0